Regional Weather Roundup
Issued by NWS

Home | Current Version | Previous Version | Text Only | Print | Product List | Glossary Off
Versions: 1 2 3 4 5 6 7 8 9 10 11 12 13 14 15 16 17 18 19 20 21 22 23 24 25 26 27 28 29 30 31 32 33 34 35 36 37 38 39 40 41 42 43 44 45 46 47 48 49 50

552
ASUS44 KJAN 220410
RWRMS

MISSISSIPPI HOURLY WEATHER ROUNDUP
NATIONAL WEATHER SERVICE JACKSON MS
1100 PM CDT THU AUG 21 2014

NOTE: "FAIR: INDICATES FEW OR NO CLOUDS BELOW 12,000 FEET WITH NO
SIGNIFICANT WEATHER AND/OR OBSTRUCTIONS TO VISIBILITY.

MSZ001>002-007>008-010>013-018>021-025>028-034>036-220500-
NORTHWEST MISSISSIPPI

CITY           SKY/WX    TMP DP  RH WIND       PRES   REMARKS
CLARKSDALE     FAIR      79  77  94 CALM      30.06S
CLEVELAND      FAIR      78  75  90 S3        30.05S
GREENWOOD      PTCLDY    77  73  87 S3        30.07F
GREENVILLE     CLEAR     77  72  84 S5        30.06R
GRENADA        FAIR      79  72  78 CALM      30.07F
OLIVE BRANCH   CLEAR     79  79 100 S7        30.06S
OXFORD         FAIR      81  73  78 SW7       30.09F
TUNICA         CLEAR     77  73  88 S6        30.05S
$$

MSZ003>006-009-014>017-022>024-029>033-037>039-220500-
NORTHEAST MISSISSIPPI

CITY           SKY/WX    TMP DP  RH WIND       PRES   REMARKS
BELMONT        FAIR      77  74  92 CALM      30.10F
COLUMBUS AFB   MOCLDY    79  71  76 CALM      30.08F
CORINTH        FAIR      79  73  83 CALM      30.08S
GOLDN TRIANGLE CLOUDY    79  70  73 NW3       30.09F
STARKVILLE     FAIR      77  70  78 CALM      30.08F
TUPELO         CLEAR     80  73  79 SW3       30.08F
$$

MSZ040-058-220500-
CENTRAL MISSISSIPPI

CITY           SKY/WX    TMP DP  RH WIND       PRES   REMARKS
JACKSON INTL   CLOUDY    76  74  93 CALM      30.09S
JACKSON HAWKNS CLOUDY    78  75  90 CALM      30.09S
MERIDIAN KEY   PTCLDY    77  71  82 SE5       30.09F
MERIDIAN NAS   PTCLDY    78  71  79 CALM      30.09F
RAYMOND        FAIR      75  70  83 E3        30.10R
VICKSBURG      MOCLDY    76  73  91 CALM      30.09R
$$

MSZ059>079-220500-
SOUTH MISSISSIPPI

CITY           SKY/WX    TMP DP  RH WIND       PRES   REMARKS
BROOKHAVEN     FAIR      73  73 100 CALM      30.13S
COLUMBIA       FOG       77  75  94 MISG      30.10R VSB 1/2
HATTIESBURG    PTCLDY    77  74  90 S5        30.11S FOG
MCCOMB         CLOUDY    77  74  90 CALM      30.12S
NATCHEZ        CLOUDY    77  72  83 SE5       30.12R
PINE BELT      PTCLDY    75  70  83 CALM      30.12S
$$

MSZ080>082-220500-
COASTAL MISSISSIPPI

CITY           SKY/WX    TMP DP  RH WIND       PRES   REMARKS
BILOXI         MOCLDY    84  77  80 VRB3      30.11R HX  94
PASCAGOULA     PTCLDY    78  76  93 CALM      30.11S
GULFPORT       CLOUDY    82  76  81 W3        30.11R
$$



USA.gov is the U.S. government's official web portal to all federal, state and local government web resources and services.